TimeCST,TemperatureF,Dew PointF,Humidity,Sea Level PressureIn,VisibilityMPH,Wind Direction,Wind SpeedMPH,Gust SpeedMPH,PrecipitationIn,Events,Conditions,WindDirDegrees,DateUTC
12:15 AM,-11.0,-16.1,78,30.51,10.0,Calm,Calm,-,N/A,,Clear,0,2014-02-11 06:15:00
12:35 AM,-10.7,-15.9,78,30.51,10.0,Calm,Calm,-,N/A,,Clear,0,2014-02-11 06:35:00
12:55 AM,-11.9,-17.5,76,30.50,10.0,Calm,Calm,-,N/A,,Clear,0,2014-02-11 06:55:00
1:15 AM,-13.2,-18.6,77,30.50,10.0,Calm,Calm,-,N/A,,Clear,0,2014-02-11 07:15:00
1:35 AM,-13.9,-19.3,77,30.50,10.0,Calm,Calm,-,N/A,,Clear,0,2014-02-11 07:35:00
1:55 AM,-14.4,-19.8,77,30.51,10.0,Calm,Calm,-,N/A,,Clear,0,2014-02-11 07:55:00
2:15 AM,-13.2,-18.8,76,30.51,10.0,Calm,Calm,-,N/A,,Clear,0,2014-02-11 08:15:00
2:35 AM,-15.7,-21.1,77,30.51,10.0,Calm,Calm,-,N/A,,Clear,0,2014-02-11 08:35:00
2:55 AM,-15.7,-21.3,76,30.51,10.0,Calm,Calm,-,N/A,,Clear,0,2014-02-11 08:55:00
3:15 AM,-16.1,-22.0,74,30.50,10.0,Calm,Calm,-,N/A,,Clear,0,2014-02-11 09:15:00
3:35 AM,-17.7,-24.0,73,30.51,10.0,Calm,Calm,-,N/A,,Clear,0,2014-02-11 09:35:00
3:55 AM,-16.6,-22.9,73,30.50,10.0,Calm,Calm,-,N/A,,Clear,0,2014-02-11 09:55:00
4:15 AM,-18.8,-25.1,73,30.50,10.0,Calm,Calm,-,N/A,,Clear,0,2014-02-11 10:15:00
4:35 AM,-18.9,-25.4,72,30.50,10.0,Calm,Calm,-,N/A,,Clear,0,2014-02-11 10:35:00
4:55 AM,-17.5,-23.3,75,30.51,10.0,Calm,Calm,-,N/A,,Clear,0,2014-02-11 10:55:00
5:15 AM,-17.9,-24.2,73,30.51,10.0,Calm,Calm,-,N/A,,Clear,0,2014-02-11 11:15:00
5:35 AM,-18.4,-24.7,73,30.51,7.0,Calm,Calm,-,N/A,,Clear,0,2014-02-11 11:35:00
5:55 AM,-17.5,-23.4,74,30.50,10.0,Calm,Calm,-,N/A,,Clear,0,2014-02-11 11:55:00
6:15 AM,-19.1,-25.4,73,30.51,2.0,Calm,Calm,-,N/A,Snow,Light Snow,0,2014-02-11 12:15:00
6:35 AM,-18.8,-25.1,73,30.51,10.0,Calm,Calm,-,N/A,,Clear,0,2014-02-11 12:35:00
6:55 AM,-20.6,-27.8,69,30.51,10.0,Calm,Calm,-,N/A,,Clear,0,2014-02-11 12:55:00
7:15 AM,-19.8,-26.7,71,30.51,10.0,Calm,Calm,-,N/A,,Clear,0,2014-02-11 13:15:00
7:35 AM,-21.5,-28.5,70,30.52,10.0,Calm,Calm,-,N/A,,Clear,0,2014-02-11 13:35:00
7:55 AM,-19.3,-26.0,71,30.52,10.0,Calm,Calm,-,N/A,,Clear,0,2014-02-11 13:55:00
8:15 AM,-18.2,-24.9,72,30.52,10.0,Calm,Calm,-,N/A,,Clear,0,2014-02-11 14:15:00
8:35 AM,-16.8,-23.3,72,30.53,10.0,Calm,Calm,-,N/A,,Clear,0,2014-02-11 14:35:00
8:55 AM,-15.9,-22.0,74,30.52,10.0,Calm,Calm,-,N/A,,Clear,0,2014-02-11 14:55:00
9:15 AM,-14.6,-20.6,75,30.52,10.0,Calm,Calm,-,N/A,,Clear,0,2014-02-11 15:15:00
9:35 AM,-12.3,-18.6,74,30.51,10.0,Calm,Calm,-,N/A,,Clear,0,2014-02-11 15:35:00
9:55 AM,-10.1,-16.1,75,30.51,10.0,Calm,Calm,-,N/A,,Clear,0,2014-02-11 15:55:00
10:15 AM,-7.8,-14.3,73,30.50,10.0,Calm,Calm,-,N/A,,Clear,0,2014-02-11 16:15:00
10:35 AM,-4.2,-11.7,70,30.50,10.0,Calm,Calm,-,N/A,,Clear,0,2014-02-11 16:35:00
10:55 AM,-1.7,-11.6,63,30.50,10.0,Calm,Calm,-,N/A,,Clear,0,2014-02-11 16:55:00
11:15 AM,0.9,-10.8,58,30.50,10.0,Calm,Calm,-,N/A,,Clear,0,2014-02-11 17:15:00
11:35 AM,4.1,-9.6,53,30.49,10.0,Calm,Calm,-,N/A,,Clear,0,2014-02-11 17:35:00
11:55 AM,6.6,-7.8,52,30.47,10.0,SSW,8.1,-,N/A,,Clear,200,2014-02-11 17:55:00
12:15 PM,7.3,-7.6,51,30.46,10.0,SSW,6.9,-,N/A,,Clear,210,2014-02-11 18:15:00
12:35 PM,8.2,-7.1,50,30.45,10.0,SSW,6.9,-,N/A,,Clear,210,2014-02-11 18:35:00
12:55 PM,9.0,-6.3,50,30.45,10.0,SSW,6.9,-,N/A,,Clear,210,2014-02-11 18:55:00
1:15 PM,9.7,-5.4,51,30.43,10.0,SSW,8.1,-,N/A,,Clear,200,2014-02-11 19:15:00
1:35 PM,10.4,-5.3,49,30.41,10.0,SSW,6.9,-,N/A,,Clear,200,2014-02-11 19:35:00
1:55 PM,10.9,-5.4,48,30.40,10.0,SSW,5.8,-,N/A,,Clear,200,2014-02-11 19:55:00
2:15 PM,11.3,-4.5,49,30.39,10.0,SSW,4.6,-,N/A,,Clear,200,2014-02-11 20:15:00
2:35 PM,11.5,-5.3,47,30.39,10.0,SSW,9.2,-,N/A,,Clear,210,2014-02-11 20:35:00
2:55 PM,11.3,-5.1,48,30.38,10.0,SSW,10.4,-,N/A,,Clear,210,2014-02-11 20:55:00
3:15 PM,11.3,-5.1,48,30.37,10.0,SSW,8.1,-,N/A,,Clear,200,2014-02-11 21:15:00
3:35 PM,12.2,-5.4,45,30.37,10.0,South,8.1,-,N/A,,Clear,170,2014-02-11 21:35:00
3:55 PM,12.2,-5.3,46,30.36,10.0,SSE,3.5,-,N/A,,Clear,160,2014-02-11 21:55:00
4:15 PM,12.0,-5.1,46,30.35,10.0,South,3.5,-,N/A,,Clear,170,2014-02-11 22:15:00
4:35 PM,11.7,-6.0,45,30.35,10.0,South,4.6,-,N/A,,Clear,170,2014-02-11 22:35:00
4:55 PM,10.8,-5.8,47,30.34,10.0,SE,9.2,-,N/A,,Clear,140,2014-02-11 22:55:00
5:15 PM,10.2,-5.8,49,30.34,10.0,SSE,8.1,-,N/A,,Clear,150,2014-02-11 23:15:00
5:35 PM,9.5,-5.4,51,30.34,10.0,SE,4.6,-,N/A,,Clear,130,2014-02-11 23:35:00
5:55 PM,8.4,-5.6,53,30.34,10.0,SE,5.8,-,N/A,,Clear,130,2014-02-11 23:55:00
6:15 PM,7.3,-5.8,55,30.33,10.0,SE,4.6,-,N/A,,Clear,130,2014-02-12 00:15:00
6:35 PM,7.2,-6.3,54,30.33,10.0,ESE,4.6,-,N/A,,Clear,110,2014-02-12 00:35:00
6:55 PM,5.9,-6.7,56,30.32,10.0,ESE,5.8,-,N/A,,Clear,110,2014-02-12 00:55:00
7:15 PM,5.5,-6.9,57,30.31,10.0,ESE,3.5,-,N/A,,Clear,120,2014-02-12 01:15:00
7:35 PM,4.5,-6.7,60,30.29,10.0,ESE,6.9,-,N/A,,Clear,110,2014-02-12 01:35:00
7:55 PM,4.6,-6.7,59,30.29,10.0,ESE,5.8,-,N/A,,Clear,120,2014-02-12 01:55:00
8:15 PM,5.0,-6.9,58,30.29,10.0,ESE,6.9,-,N/A,,Clear,120,2014-02-12 02:15:00
8:35 PM,4.8,-6.9,59,30.29,10.0,ESE,6.9,-,N/A,,Clear,110,2014-02-12 02:35:00
8:55 PM,4.1,-6.9,60,30.28,10.0,East,6.9,-,N/A,,Clear,100,2014-02-12 02:55:00
9:15 PM,3.7,-7.1,61,30.28,10.0,East,6.9,-,N/A,,Clear,100,2014-02-12 03:15:00
9:35 PM,3.6,-7.1,61,30.27,10.0,East,6.9,-,N/A,,Clear,100,2014-02-12 03:35:00
9:55 PM,3.7,-6.9,61,30.27,10.0,East,6.9,-,N/A,,Clear,90,2014-02-12 03:55:00
10:15 PM,3.9,-6.7,61,30.28,10.0,East,6.9,-,N/A,,Clear,100,2014-02-12 04:15:00
10:35 PM,4.1,-6.3,62,30.28,10.0,East,4.6,-,N/A,,Clear,100,2014-02-12 04:35:00
10:55 PM,4.1,-6.0,63,30.29,10.0,East,5.8,-,N/A,,Scattered Clouds,100,2014-02-12 04:55:00
11:15 PM,5.0,-5.8,61,30.27,10.0,ESE,5.8,-,N/A,,Mostly Cloudy,120,2014-02-12 05:15:00
11:35 PM,6.4,-5.1,59,30.27,10.0,ESE,5.8,-,N/A,,Overcast,120,2014-02-12 05:35:00
11:55 PM,7.5,-4.4,58,30.27,10.0,ESE,4.6,-,N/A,,Overcast,120,2014-02-12 05:55:00